SCP
0 0 0 1 1 0 0 0 0 0 0 0 0 0 0 0 0 0 0 0 0 0 0 0 0 0 0 0 0 0 0 0 0 0 0 0 0 0 0 0 0 0 0 0 0 0 0 0 0
0 0 1 1 0 0 0 0 0 0 0 0 0 0 0 0 0 0 0 0 0 0 0 0 0 0 0 0 0 0 0 0 0 0 0 0 0 0 0 0 0 0 0 0 0 0 0 0 0
0 1 1 1 0 0 0 0 0 0 0 0 0 0 0 0 0 0 0 0 0 0 0 0 0 0 0 0 0 0 0 0 0 0 0 0 0 0 0 0 0 0 0 0 0 0 0 0 0
1 1 1 0 0 0 0 0 0 0 0 0 0 0 0 0 0 0 0 0 0 0 0 0 0 0 0 0 0 0 0 0 0 0 0 0 0 0 0 0 0 0 0 0 0 0 0 0 0
1 1 1 0 0 0 0 0 0 0 0 0 0 0 0 0 0 0 0 0 0 0 0 0 0 0 0 0 0 0 0 0 0 0 0 0 0 0 0 0 0 0 0 0 0 0 0 0 0
1 1 0 0 0 0 0 0 0 0 0 0 0 0 0 0 0 0 0 0 0 0 0 0 0 0 0 0 0 0 0 0 0 0 0 0 0 0 0 0 0 0 0 0 0 0 0 0 0
1 0 0 0 0 0 0 0 0 0 0 0 0 0 0 0 0 0 0 0 0 0 0 0 0 0 0 0 0 0 0 0 0 0 0 0 0 0 0 0 0 0 0 0 0 0 0 0 0
0 0 0 0 0 0 0 0 0 0 0 0 0 0 0 0 0 0 0 0 0 0 0 0 0 0 0 0 0 0 0 0 0 0 0 0 0 0 0 0 0 0 0 0 0 0 0 0 0
0 0 0 0 0 0 0 0 0 0 0 0 0 0 0 0 0 0 0 0 0 0 0 0 0 0 0 0 0 0 0 0 0 0 0 0 0 0 0 0 0 0 0 0 0 0 0 0 0
0 0 0 0 0 0 0 0 0 0 0 0 0 0 0 0 0 0 0 0 0 0 0 0 0 0 0 0 0 0 0 0 0 0 0 0 0 0 0 0 0 0 0 0 0 0 0 0 0
0 0 0 0 0 0 0 0 0 0 0 0 0 0 0 0 0 0 0 0 0 0 0 0 0 0 0 0 0 0 0 0 0 0 0 0 0 0 0 0 0 0 0 0 0 0 0 0 0
0 0 0 0 0 0 0 0 0 0 0 0 0 0 0 0 0 0 0 0 0 0 0 0 0 0 0 0 0 0 0 0 0 0 0 0 0 0 0 0 0 0 0 0 0 0 0 0 0
0 0 0 0 0 0 0 0 0 0 0 0 0 0 0 0 0 0 0 0 0 0 0 0 0 0 0 0 0 0 0 0 0 0 0 0 0 0 0 0 0 0 0 0 0 0 0 0 0
0 0 0 0 0 0 0 0 0 0 0 0 0 0 0 0 0 0 0 0 0 0 0 0 0 0 0 0 0 0 0 0 0 0 0 0 0 0 0 0 0 0 0 0 0 0 0 0 0
0 0 0 0 0 0 0 0 0 0 0 0 0 0 0 0 0 0 0 0 0 0 0 0 0 0 0 0 0 0 0 0 0 0 0 0 0 0 0 0 0 0 0 0 0 0 0 0 0
0 0 0 0 0 0 0 0 0 0 0 0 0 0 0 0 0 0 0 0 0 0 0 0 0 0 0 0 0 0 0 0 0 0 0 0 0 0 0 0 0 0 0 0 0 0 0 0 0
0 0 0 0 0 0 0 0 0 0 0 0 0 0 1 1 0 0 0 1 1 1 0 0 0 0 0 0 0 0 0 0 0 0 0 0 0 0 0 0 0 0 0 0 0 0 0 0 0
0 0 0 0 0 0 0 0 0 0 0 0 0 0 1 1 1 1 1 1 1 1 1 1 0 0 0 0 0 0 0 0 0 0 0 0 0 0 0 0 0 0 0 0 0 0 0 0 0
0 0 0 0 0 0 0 0 0 0 0 0 0 1 1 1 1 1 1 1 1 1 1 1 1 0 0 0 0 0 0 0 0 0 0 0 0 0 0 0 0 0 0 0 0 0 0 0 0
0 0 0 0 0 0 0 0 0 0 0 0 0 1 1 1 1 1 1 1 1 1 1 1 1 1 0 0 0 0 0 0 0 0 0 0 0 0 0 0 0 0 0 0 0 0 0 0 0
0 0 0 0 0 0 0 0 0 0 0 0 0 0 1 1 1 1 1 1 1 1 1 1 1 1 1 0 0 0 0 0 0 0 0 0 0 0 0 0 0 0 0 0 0 0 0 0 0
0 0 0 0 0 0 0 0 0 0 0 0 0 0 1 1 1 1 1 1 1 1 1 1 1 1 1 0 0 0 0 0 0 0 0 0 0 0 0 0 0 0 0 0 0 0 0 0 0
0 0 0 0 0 0 0 0 0 0 0 0 0 0 1 1 1 1 1 1 1 1 1 1 1 1 1 1 0 0 0 0 0 0 0 0 0 0 0 0 0 0 0 0 0 0 0 0 0
0 0 0 0 0 0 0 0 0 0 0 0 0 0 1 1 1 1 1 1 1 1 1 1 1 1 1 1 1 1 0 0 0 0 0 0 0 0 0 0 0 0 0 0 0 0 0 0 0
0 0 0 0 0 0 0 0 0 0 0 0 0 0 0 0 1 1 1 1 1 1 1 1 2 2 1 1 1 1 1 0 0 0 0 0 0 0 0 0 1 0 0 0 0 0 0 0 0
0 0 0 0 0 0 0 0 0 0 0 0 0 0 0 0 0 1 1 1 1 1 1 1 2 2 1 1 1 1 1 1 0 0 0 0 0 0 0 1 1 1 1 0 0 0 0 0 0
0 0 0 0 0 0 0 0 0 0 0 0 0 0 0 0 0 1 1 1 1 1 1 1 2 2 1 1 1 1 1 1 1 1 0 0 1 0 1 1 1 1 1 1 1 1 0 0 0
0 0 0 0 0 0 0 0 0 0 0 0 0 0 0 0 0 0 1 1 1 1 1 1 2 2 1 1 1 1 1 1 1 1 1 1 1 1 1 1 1 1 1 1 1 1 1 0 0
0 0 0 0 0 0 0 0 0 0 0 0 0 0 0 0 0 1 1 1 1 1 1 1 1 1 1 1 1 1 1 1 1 1 1 1 1 1 1 1 1 1 1 1 1 1 1 1 1
0 0 0 0 0 0 0 0 0 0 0 0 0 0 1 1 0 1 1 1 1 1 1 1 1 1 1 1 1 1 1 1 1 1 1 1 1 1 1 1 1 1 1 1 1 1 1 1 1
Wind_Speed
9 11 10 6 5 2 8 11 12 11 12 11 10 12 14 14 10 8 8 9 10 10 11 12 12 11 11 10 10 9 10 10 10 9 9 9 9 9 10 11 12 13 13 13 13 12 12 11 11
9 11 8 5 3 4 11 11 12 12 10 9 11 14 13 14 12 9 8 8 9 10 10 11 13 12 12 11 10 10 10 9 9 9 9 8 8 8 9 10 11 12 13 13 13 12 11 11 11
12 13 7 4 3 9 11 10 10 12 10 10 11 13 11 9 10 8 8 8 9 10 12 12 12 12 12 11 10 10 10 9 9 9 9 8 8 8 9 9 10 11 12 12 12 12 11 11 10
8 7 6 1 8 11 11 8 9 12 11 11 11 11 11 9 8 9 9 9 10 11 12 12 13 12 12 11 10 10 10 10 9 9 9 8 8 8 8 9 9 11 11 11 12 12 11 10 9
8 5 3 4 10 11 10 9 10 11 10 12 13 12 12 10 11 10 9 9 9 11 11 11 13 12 11 11 10 10 10 9 9 9 9 8 8 8 8 8 9 10 11 11 12 11 10 10 9
5 5 0 5 10 11 10 9 11 11 10 11 11 12 11 10 10 9 9 9 10 10 11 10 12 12 11 10 10 10 9 9 9 9 8 8 7 7 8 8 9 10 11 11 11 11 10 9 8
6 4 3 7 9 10 10 9 10 11 10 9 10 11 11 9 8 9 11 11 10 10 10 9 10 10 10 10 10 9 9 9 8 8 8 7 7 7 7 9 10 10 10 10 10 10 10 10 8
4 3 4 7 9 9 10 10 11 11 10 9 8 9 10 9 9 10 11 11 9 9 9 8 7 7 6 7 9 9 8 8 8 8 8 7 6 7 8 8 9 9 10 10 11 11 11 10 9
4 2 3 6 8 7 9 10 10 10 11 11 11 13 13 11 10 10 10 9 8 8 7 7 6 5 5 5 7 7 8 8 7 6 7 6 3 4 5 8 9 10 10 10 11 11 11 10 10
2 1 4 6 7 7 8 9 8 8 10 11 13 14 13 11 10 9 9 8 8 7 6 6 6 5 4 4 4 3 4 4 4 3 4 3 2 2 4 7 9 10 10 10 10 10 10 8 6
1 2 4 6 7 7 7 8 8 9 9 10 12 13 12 11 10 9 8 8 8 6 6 6 6 4 4 3 2 1 2 2 2 3 2 2 2 2 3 3 5 6 7 6 8 8 6 6 4
1 1 3 5 6 6 7 8 10 12 11 11 12 12 11 10 9 8 8 9 7 6 6 5 5 4 3 2 1 2 2 2 2 3 2 2 1 1 2 2 3 4 3 4 4 3 4 5 5
2 1 2 4 5 6 6 7 10 12 12 12 12 12 11 10 9 9 9 9 7 6 6 5 4 4 3 1 0 1 2 3 3 3 1 2 1 1 1 1 2 2 3 3 3 3 3 2 3
3 2 1 2 3 5 5 7 9 12 12 12 12 11 10 10 10 9 8 7 7 6 5 5 4 4 3 1 0 1 2 2 3 2 2 1 1 2 1 2 1 2 2 2 2 3 2 2 2
5 4 1 3 3 4 4 5 8 11 12 11 11 10 10 9 9 9 9 7 7 6 5 4 5 4 3 2 1 2 1 3 2 2 3 2 2 2 2 2 1 1 2 2 2 2 2 3 2
7 6 4 4 4 5 3 5 9 10 10 11 10 11 10 9 9 8 9 7 7 6 5 3 4 5 3 2 1 1 2 2 2 2 3 3 2 2 2 1 1 2 2 2 2 2 2 2 2
6 8 6 3 3 2 3 5 8 10 10 10 10 11 11 10 9 8 9 8 7 6 5 3 3 4 3 3 2 1 2 2 2 2 2 3 3 3 2 1 1 2 1 1 2 2 2 2 2
8 8 5 1 3 2 1 4 6 8 8 9 11 11 11 11 9 9 9 9 8 6 5 4 3 3 2 2 2 1 2 2 2 2 2 3 2 2 2 2 2 1 2 2 2 2 1 1 2
9 9 5 3 1 1 1 4 5 6 7 8 10 11 11 11 11 10 9 9 8 7 5 5 4 3 2 1 2 2 1 2 2 2 3 3 3 2 2 2 2 1 2 2 2 2 2 1 1
9 9 7 5 2 2 1 3 4 6 6 6 9 11 12 12 11 10 9 9 8 7 6 5 4 4 3 2 1 1 2 2 2 2 2 3 3 2 2 3 2 2 2 2 2 2 1 1 1
9 9 8 6 5 4 3 2 3 5 5 5 6 9 12 12 13 12 10 9 9 8 7 5 5 4 4 3 2 1 1 1 2 2 2 2 2 2 2 3 2 2 2 2 2 2 2 1 1
9 9 8 7 7 6 4 2 3 5 6 7 6 8 10 11 12 11 10 9 9 8 8 6 5 4 4 3 2 3 2 2 2 2 2 2 2 2 2 2 2 2 1 1 2 2 1 1 1
9 9 9 9 9 7 5 3 4 6 7 8 7 7 8 10 11 10 9 8 7 8 8 7 6 5 4 3 3 2 1 2 2 2 3 2 2 2 2 2 2 2 1 1 1 1 1 1 1
8 9 10 9 8 8 7 5 3 3 5 8 7 7 7 7 9 10 9 8 6 7 8 8 7 6 5 4 3 3 2 2 2 2 3 3 2 2 2 2 2 1 1 1 1 1 0 1 1
8 7 6 5 6 8 4 3 1 1 3 6 8 7 7 6 8 9 9 8 7 6 6 7 8 7 6 5 4 3 2 2 2 2 2 3 2 2 2 2 2 2 2 1 1 1 1 1 1
8 7 6 6 8 7 3 3 4 4 4 7 8 9 7 6 6 8 9 8 7 6 6 7 7 6 6 5 5 4 3 3 2 2 2 1 1 2 2 3 2 2 2 2 1 1 2 1 1
9 8 9 8 9 8 4 1 4 6 6 7 8 8 7 5 4 6 8 8 7 7 6 7 7 6 6 5 4 4 3 3 2 2 2 2 1 2 2 3 3 2 2 2 2 1 2 2 2
9 10 7 6 5 6 5 3 2 6 6 6 7 7 7 7 5 6 7 7 6 6 6 6 7 7 6 5 4 4 4 3 2 2 2 2 1 1 1 1 2 2 2 2 2 2 2 2 2
8 8 6 5 6 7 4 3 0 3 5 5 6 6 6 5 4 4 6 6 6 6 5 4 5 6 5 5 4 3 4 4 3 3 2 2 2 2 2 2 2 2 2 2 2 3 3 3 3
10 10 9 7 6 7 6 2 1 2 4 5 5 6 5 4 4 3 4 5 5 5 5 4 4 5 4 4 4 3 3 3 3 3 2 2 2 2 1 2 2 2 2 2 3 3 3 3 3
Wind_Direction
194 211 217 238 244 234 58 59 61 55 58 56 55 61 59 49 47 78 86 78 84 93 107 107 107 110 113 116 113 110 109 109 109 113 113 113 113 117 124 133 138 139 139 138 139 139 137 137 134
219 221 227 243 263 60 64 58 63 63 62 64 63 64 63 60 64 86 84 86 89 96 102 102 108 112 113 116 115 113 111 110 110 114 115 116 119 123 130 134 141 143 143 143 144 145 144 142 141
248 246 253 237 51 61 63 63 74 77 65 63 70 64 56 61 71 85 92 94 92 94 101 109 114 115 114 114 119 118 113 110 110 111 114 115 116 121 128 132 139 144 146 148 150 149 148 147 148
245 239 241 258 66 67 65 62 73 75 66 59 70 71 67 61 77 95 98 93 95 100 104 114 117 118 119 118 118 120 118 114 115 114 115 116 117 121 127 134 138 144 149 154 154 151 152 154 157
238 260 252 67 72 74 73 66 71 72 67 66 75 85 82 78 90 98 101 97 97 100 104 113 120 121 123 125 123 125 123 121 121 118 119 122 125 130 135 139 141 145 152 155 157 157 158 160 166
259 254 303 73 76 73 68 65 73 72 72 79 91 93 88 94 96 101 104 100 96 100 103 110 122 125 125 128 127 129 128 128 129 126 126 127 129 132 139 143 145 149 153 157 160 163 162 163 172
250 290 30 69 75 75 74 63 67 70 66 70 89 93 97 98 105 107 103 100 99 101 106 111 120 124 133 136 133 133 135 137 137 133 132 133 135 140 143 148 149 153 155 158 161 166 169 170 180
271 308 27 65 74 71 82 74 68 74 69 67 75 88 106 114 113 109 102 99 98 98 102 105 113 117 128 135 140 140 144 145 145 144 144 145 152 155 154 153 152 158 162 163 167 171 174 176 186
291 326 29 61 79 80 86 86 85 92 88 78 76 92 113 118 116 109 102 98 92 92 96 101 104 115 126 129 132 144 149 148 150 153 153 156 162 158 157 151 159 165 167 170 174 177 180 184 194
188 66 57 63 78 78 83 88 101 100 88 90 95 104 117 120 115 108 104 103 98 96 96 93 85 82 85 101 121 142 141 141 158 152 156 161 154 153 140 147 165 173 175 178 180 184 185 192 196
91 53 52 67 78 89 89 85 86 88 87 97 111 119 122 121 116 111 107 104 101 103 95 92 92 83 77 84 117 127 132 139 150 136 136 140 152 152 146 155 161 173 180 188 180 190 193 192 195
275 59 51 72 78 88 87 89 84 79 88 106 116 123 124 124 122 119 114 109 104 101 95 88 95 91 76 72 95 138 132 140 137 132 144 140 160 149 151 152 163 165 174 175 172 184 182 187 187
296 64 82 86 99 96 96 98 96 98 106 114 122 126 128 128 122 120 116 114 114 107 105 103 97 98 97 88 280 125 131 128 131 132 149 134 145 133 109 110 121 138 148 160 170 166 159 157 162
302 316 66 100 112 125 122 118 116 115 120 126 129 130 129 123 120 117 116 115 117 115 109 111 114 104 100 92 55 98 113 114 123 134 134 122 118 118 111 110 109 129 141 144 151 145 154 166 161
279 275 248 175 161 130 118 107 112 124 130 134 135 135 130 125 123 123 123 125 125 121 113 118 128 113 107 97 122 123 113 115 125 132 132 126 105 116 122 115 137 138 129 136 137 152 157 167 167
279 270 243 190 167 150 164 126 127 142 140 139 141 138 137 134 134 133 131 131 129 126 119 124 123 117 113 111 111 98 102 106 117 127 135 133 120 110 109 138 146 128 127 136 144 167 150 151 154
265 258 246 171 165 165 164 123 142 155 147 147 146 145 144 141 137 134 134 134 130 126 126 124 105 115 128 127 129 112 105 107 116 120 124 132 141 140 140 124 106 134 135 143 155 134 140 152 148
259 255 263 256 158 162 118 126 147 154 150 152 151 149 146 146 146 141 140 138 136 132 133 136 129 118 124 132 131 102 109 115 119 110 111 129 143 140 138 127 134 148 126 125 108 111 137 138 149
269 281 295 298 204 197 171 147 161 159 157 162 155 150 149 151 148 143 145 144 143 140 142 144 140 130 134 132 142 148 137 134 124 130 133 134 134 133 132 119 128 129 116 121 122 124 139 154 150
279 289 291 294 279 265 193 153 171 157 163 160 154 154 153 152 150 151 154 153 154 151 154 157 148 147 153 146 147 150 150 143 138 122 123 131 133 141 149 125 131 122 123 133 133 123 124 158 167
269 271 274 282 294 282 254 210 195 153 154 154 163 157 155 157 156 158 163 165 164 161 160 159 155 155 165 157 152 149 135 124 111 118 124 127 125 121 104 121 121 113 126 151 162 169 189 185 220
272 278 282 278 274 270 247 237 220 181 164 158 167 164 157 156 156 159 164 167 167 162 158 154 152 152 157 158 161 169 155 140 134 134 129 129 115 110 113 123 135 140 141 148 178 156 193 204 234
275 285 288 283 274 266 257 255 211 189 178 170 167 157 150 149 153 156 157 161 166 162 157 155 147 147 150 160 162 169 161 149 133 134 133 133 132 138 135 132 141 153 157 138 114 102 168 222 245
277 286 281 273 272 260 240 243 237 202 174 164 154 144 131 141 148 149 153 154 158 157 159 159 149 152 157 163 165 173 171 141 138 144 143 153 154 162 157 152 152 151 157 154 149 134 161 278 284
253 267 279 280 260 258 228 215 151 152 141 131 131 131 133 145 147 150 151 151 153 155 156 150 146 155 164 172 176 178 182 181 173 174 171 166 163 166 164 160 157 158 168 174 155 167 213 247 275
261 252 255 266 277 282 248 198 143 159 137 115 123 129 132 134 139 146 148 149 153 157 150 148 147 158 168 176 180 179 188 195 186 184 195 172 174 164 149 163 166 173 189 189 176 201 217 227 248
271 270 270 265 271 284 284 196 152 150 136 124 120 120 122 120 125 144 142 148 155 157 154 153 150 159 167 171 170 174 184 195 184 188 195 197 182 178 174 174 168 178 193 208 211 212 231 231 233
252 274 291 292 289 281 287 263 197 153 141 133 129 124 126 128 148 155 139 142 147 154 148 150 156 161 165 169 180 177 182 187 173 183 197 196 184 177 197 184 176 186 196 215 220 225 232 235 239
250 253 267 282 288 288 286 295 92 133 128 134 132 128 124 123 125 137 137 142 142 138 136 139 146 155 163 170 177 178 174 180 182 185 188 183 181 189 199 199 200 200 205 220 224 230 228 232 242
257 262 265 266 266 274 271 224 204 130 124 120 116 106 96 94 100 112 117 128 130 136 132 134 158 159 162 165 168 171 167 174 180 189 195 191 193 198 194 205 214 219 218 226 233 235 240 238 242